Regional Weather Roundup
Issued by NWS Sterling, VA

Home | Current Version | Previous Version | Text Only | Print | Product List | Glossary On
Versions: 1 2 3 4 5 6 7 8 9 10 11 12 13 14 15 16 17 18 19 20 21 22 23 24 25 26 27
000
ASUS41 KLWX 191410
RWRLWX

REGIONAL WEATHER ROUNDUP
NATIONAL WEATHER SERVICE BALTIMORE MD/WASHINGTON DC
1000 AM EDT SAT APR 19 2014

Note: "FAIR" indicates few or no clouds below 12,000 feet
with no significant weather and/or obstructions to visibility.
 TC=TEMPERATURE CELSIUS

 * =Non NWS site. Station does not report precipitation (e.g. rain,
    snow, etc.), thunder, or fog.

DCZ001-MDZ009-015-VAZ040>042-051-053>054-191500-
WASHINGTON METRO

CITY           SKY/WX    TMP DP  RH WIND       PRES   REMARKS
WASHINGTON NAT PTSUNNY   54  38  54 CALM      30.32R
DULLES         CLOUDY    51  38  60 N3        30.31R
ANDREWS AFB    CLOUDY    51  39  61 VRB3      30.30S
FT BELVOIR     PTSUNNY   53  40  62 VRB2      30.32R
QUANTICO       PTSUNNY   52  42  69 E7        30.33R
COLLEGE PARK*  PTSUNNY   54  39  58 CALM      30.30S
LEESBURG*      PTSUNNY   54  41  62 NE6       30.32S
GAITHERSBURG*  MOSUNNY   55  37  50 NE5       30.33R

$$

MDZ006>007-011-014-191500-
BALTIMORE METRO

CITY           SKY/WX    TMP DP  RH WIND       PRES   REMARKS
BWI AIRPORT    PTSUNNY   53  37  54 NE3       30.30R
MD SCIENCE CTR   N/A     55  37  50 MISG      30.35R
MARTIN STATE   PTSUNNY   54  43  66 CALM      30.33R
ANNAPOLIS      CLOUDY    53  39  59 NW3       30.31S
FORT MEADE*    PTSUNNY   54  37  54 CALM      30.33S

$$

MDZ012-015-019>023-191500-
MARYLAND EASTERN SHORE

CITY           SKY/WX    TMP DP  RH WIND       PRES   REMARKS
OCEAN CITY     CLOUDY    49  42  77 E6        30.30S
SALISBURY      CLOUDY    53  42  66 CALM      30.29F
BAY BRIDGE AP* CLOUDY    52  43  71 W5        30.31S
CAMBRIDGE*     CLOUDY    52  43  71 NW5       30.30S
EASTON*          N/A     54  48  82 CALM      30.34S

$$

MDZ017>025-191500-
SOUTHERN MARYLAND

CITY           SKY/WX    TMP DP  RH WIND       PRES   REMARKS
PATUXENT RIVER CLOUDY    52  43  71 NE5       30.30S
ST INIGOES     CLOUDY    53  41  63 NE6       30.30R
LEONARDTOWN*   CLOUDY    52  41  66 E5        30.31S

$$

MDZ003>005-191500-
NORTH CENTRAL MARYLAND

CITY           SKY/WX    TMP DP  RH WIND       PRES   REMARKS
FREDERICK*     SUNNY     52  43  71 N8        30.34R
HAGERSTOWN APT MOSUNNY   56  39  53 N12       30.31R
WESTMINSTER*   MOSUNNY   55  32  41 N12       30.30R

$$

MDZ501>502-191500-
WESTERN MARYLAND

CITY           SKY/WX    TMP DP  RH WIND       PRES   REMARKS
OAKLAND*       MOSUNNY   50  27  40 NE3       30.31R
CUMBERLAND*    MOSUNNY   55  37  50 CALM      30.36S

$$

VAZ025>031-191500-
SHENANDOAH VALLEY

CITY           SKY/WX    TMP DP  RH WIND       PRES   REMARKS
WINCHESTER*    PTSUNNY   54  37  54 NE6       30.31S
STAUNTON*      PTSUNNY   54  41  61 NE6       30.29S

$$

WVZ021-048>050-054>055-191500-
EASTERN WEST VIRGINIA PANHANDLE

CITY           SKY/WX    TMP DP  RH WIND       PRES   REMARKS
MARTINSBURG    PTSUNNY   56  37  49 CALM      30.31R
PETERSBURG*    PTSUNNY   56  46  71 CALM      30.33S

$$

VAZ036>039-050-191500-
CENTRAL FOOTHILLS

CITY           SKY/WX    TMP DP  RH WIND       PRES   REMARKS
CHARLOTTESVILL PTSUNNY   53  40  61 N7        30.28S
CULPEPER*      PTSUNNY   54  41  62 N3        30.31S

$$

VAZ055>057-191500-
NORTH AND CENTRAL PIEDMONT

CITY           SKY/WX    TMP DP  RH WIND       PRES   REMARKS
FREDERICKSBRG* PTSUNNY   54  43  66 N3        30.30S
STAFFORD*      PTSUNNY   53  43  68 NE6       30.35R

$$

NCZ024-NYZ072-PAZ021-071-VAZ022-071-191500-
OTHER REGIONAL OBSERVATIONS

CITY           SKY/WX    TMP DP  RH WIND       PRES   REMARKS
NEW YORK CITY  SUNNY     55  32  41 VRB3      30.29S
PHILADELPHIA   PTSUNNY   56  36  47 N8        30.31R
PITTSBURGH     PTSUNNY   51  37  58 N8        30.36R
ROANOKE        CLOUDY    54  40  59 NE6       30.25S
RICHMOND       CLOUDY    51  42  71 NE7       30.27S
RALEIGH        LGT RAIN  47  43  86 NE12      30.16F FOG

$$

ANZ530>537-191500-
MARINE OBSERVATIONS

STATION/POSITION TIME  TEMP    WIND        PRES
                       AIR SEA DIR/SP/G
                 (UTC) (F)     (DEG/KT/KT) (MB)
THOMAS PT LIGHT  1400   49 52   CALM  /  1 1026.8S
BALT KEY BRIDGE  1400   52      CALM  /  1 1026.6R
COVE POINT       1400   48     360/  5/  5 1026.0S
LEWISETTA        1400   49 53   30/  4/  6 1025.7F
SOLOMONS ISLAND  1400      52                N/A
PINEY POINT      1400           10/  2/  2   N/A

$$




USA.gov is the U.S. government's official web portal to all federal, state and local government web resources and services.